Weather in Alegazovo

Russia / Republic of Bashkortostan     55°56′13″N   58°07′09″E
temp.,
°C
wind,
m/s
gust,
m/s
humid.,
%
clouds,
%
prec.,
mm/h
press.,
hPa
HPBL,
m
1 march, mon
mon123:00−14ene4795100 0.4 1009307
02:00−16ene369697 0.1 1011206
05:00−16ne359798 0.3 1013189
08:00−17ene2597100 0.3 1014163
11:00−15e2392100 0.4 1016305
14:00−11ne1186100 0.2 1015427
17:00−11nne1186100 0.3 1016337
20:00−15n019696 0.1 101620
2 march, tue
tue223:00−15wsw249598 0.1 101795
02:00−19sw249681 0.0 101691
05:00−20ssw369783 0.1 101597
08:00−21ssw369587 0.0 1013132
11:00−15ssw5108893 0.0 1010447
14:00−11ssw61190100 0.1 1006532
17:00−10sw51188100 0.4 1004680
20:00−13ssw41388100 0.1 1003556
3 march, wed
wed323:00−12ssw41288100 0.2 1002551
02:00−11ssw31190100 0.1 999420
05:00−9ssw31190100 0.1 997363
08:00−7sw4119199 0.1 996356
11:00−3wsw6108696 0.1 996871
14:00−2wsw598597 0.1 997945
17:00−3wsw488799 0.1 998826
20:00−7sw389272 0.0 998179
4 march, thu
thu423:00−7sw499186 0.0 999255
02:00−7wsw41091100 0.0 999359
05:00−8w4109194 0.0 1000317
08:00−12w4109350 0.0 1001249
11:00−9w5108745 0.0 1002598
14:00−7w698276 0.0 1002973
17:00−7wsw598688 0.1 1002938
20:00−9sw4119199 0.1 1002427
5 march, fri
fri523:00−8ssw4128999 0.1 1001597
02:00−8ssw51491100 0.1 998802
05:00−5ssw61591100 0.4 994916
08:00−2sw81692100 1.0 9911135
11:00−1sw91690100 2.3 9901317
14:00−3wsw11187799 0.9 9941510
17:00−7w9158495 1.0 10011072
20:00−8w7148771 0.1 1006765